Weather in Karaksha

Russia / Kirov Oblast     57°02′00″N   47°55′36″E
temp.,
°C
wind,
m/s
gust,
m/s
humid.,
%
clouds,
%
prec.,
mm/h
press.,
hPa
HPBL,
m
7 march, sun
sun700:00−16w229864 0.1 101120
03:00−16sw239975 0.1 101020
06:00−17sw239897 0.1 100929
09:00−15ssw349797 0.1 1009173
12:00−10s479496 0.0 1006419
15:00−8s698998 0.1 1003706
18:00−9sse71394100 0.1 1001713
21:00−8sse71294100 1.2 997742
8 march, mon
mon800:00−7s71394100 1.2 993676
03:00−6s51095100 1.9 991529
06:00−10w51189100 0.6 991345
09:00−10wsw598668 0.6 993299
12:00−8sw5790100 0.3 995562
15:00−6wsw4785100 0.4 997888
18:00−8sw3694100 0.3 997123
21:00−10wsw3396100 0.6 99839
9 march, tue
tue900:00−13nw339889 0.0 100035
03:00−17nw349985 0.1 100260
06:00−19nw349998 0.0 100473
09:00−16nw469497 0.1 1006312
12:00−13nw4589100 0.1 1008496
15:00−12nw4688100 0.1 1009696
18:00−15nw3796100 0.1 1010160
21:00−19nnw469694 0.2 1013120
10 march, wed
wed1000:00−21nnw479879 0.0 1013138
03:00−25nnw469981 0.1 1015102
06:00−28nnw469885 0.0 1016105
09:00−26n479459 0.0 1018278
12:00−22nnw469046 0.0 1019373
15:00−18nw478623 0.0 1019486
18:00−22wnw349421 0.0 101964
21:00−22wnw479727 0.0 1020115
11 march, thu
thu1100:00−22w4710080 0.0 101999
03:00−23w4710083 0.0 1020120
06:00−22w5119781 0.0 1020211
09:00−18w599477 0.0 1020260
12:00−13w59909 0.0 1021341
15:00−10w69888 0.0 1021499
18:00−12wsw499473 0.0 1022210
21:00−16w479455 0.0 1023117